Quillayute, WA
on Wednesday, January 16, 2013

Wednesday
Previous Day Next Day
Daily Summary
 ActualAverageRecord
Temperature
Mean Temperature °F 42°F  
Max Temperature 45°F 47°F 60°F (2014)
Min Temperature 28°F 36°F 18°F (1984)
Degree Days
Heating Degree Days 28 23  
Month to date heating degree days 380  
Since 1 July heating degree days 2858  
Cooling Degree Days 0 0  
Month to date cooling degree days 0  
Year to date cooling degree days 0  
Moisture
Dew Point 31°F   
Average Humidity 95    
Maximum Humidity 100    
Minimum Humidity 72    
Precipitation
Precipitation 0.00 in 0.50 in 2.51 in (1982)
Month to date precipitation 7.76  
Year to date precipitation 7.76  
Wind
Wind Speed 1 mph   
Max Wind Speed 7 mph   
Max Gust Speed 9 mph   
Visibility 2 miles   
Events Fog   

Key: T is trace of precipitation, MM is missing value
Source: NWS Daily Summary
Time(PST)TemperatureDew PointHumidity Pressure Visibility Wind DirectionWind SpeedGust SpeedPrecipitationEvents Conditions
12:25 AM 33.8°F 33.8°F 100% 30.67 in 1.8 miles East 3.5 mph - N/A   Overcast
12:29 AM 33.8°F 33.8°F 100% 30.67 in 0.8 miles East 4.6 mph - N/A   Overcast
12:40 AM 33.8°F 33.8°F 100% 30.67 in 0.2 miles NE 4.6 mph - N/A Fog Fog
12:53 AM 33.1°F 33.1°F 100% 30.68 in 0.2 miles NNE 3.5 mph - N/A Fog Fog
1:53 AM 32.0°F 32.0°F 100% 30.68 in 0.2 miles NNE 3.5 mph - N/A Fog Fog
2:53 AM 30.9°F 30.9°F 100% 30.68 in 0.2 miles NE 3.5 mph - N/A Fog Light Freezing Fog
3:53 AM 30.0°F 30.0°F 100% 30.67 in 0.2 miles Calm Calm - N/A Fog Light Freezing Fog
4:33 AM 30.2°F 28.4°F 93% 30.65 in 0.2 miles Calm Calm - N/A Fog Light Freezing Fog
4:53 AM 28.9°F 28.9°F 100% 30.65 in 0.2 miles Calm Calm - N/A Fog Light Freezing Fog
5:36 AM 28.4°F 28.4°F 100% 30.63 in 0.2 miles Calm Calm - N/A Fog Light Freezing Fog
5:53 AM 28.0°F 28.0°F 100% 30.63 in 0.2 miles Calm Calm - N/A Fog Light Freezing Fog
6:53 AM 28.9°F 28.0°F 96% 30.63 in 0.2 miles East 3.5 mph - N/A Fog Light Freezing Fog
7:53 AM 28.9°F 28.0°F 96% 30.63 in 0.2 miles Calm Calm - N/A Fog Light Freezing Fog
8:18 AM 28.4°F 28.4°F 100% 30.62 in 0.2 miles Calm Calm - N/A Fog Light Freezing Fog
8:53 AM 28.9°F 28.9°F 100% 30.63 in 0.2 miles Calm Calm - N/A Fog Light Freezing Fog
9:17 AM 30.2°F 28.4°F 93% 30.63 in 0.5 miles Calm Calm - N/A Fog Light Freezing Fog
9:30 AM 30.2°F 30.2°F 100% 30.63 in 1.2 miles Calm Calm - N/A   Scattered Clouds
9:41 AM 30.2°F 30.2°F 100% 30.63 in 1.5 miles Calm Calm - N/A   Partly Cloudy
9:53 AM 32.0°F 32.0°F 100% 30.63 in 1.8 miles East 3.5 mph - N/A   Clear
10:04 AM 32.0°F 32.0°F 100% 30.63 in 2.5 miles East 4.6 mph - N/A   Clear
10:13 AM 32.0°F 32.0°F 100% 30.63 in 5.0 miles East 4.6 mph - N/A   Clear
10:23 AM 32.0°F 32.0°F 100% 30.63 in 5.0 miles East 3.5 mph - N/A   Partly Cloudy
10:53 AM 35.1°F 34.0°F 96% 30.63 in 5.0 miles Calm Calm - N/A   Clear
11:53 AM 39.2°F 35.6°F 87% 30.59 in 5.0 miles Calm Calm - N/A   Clear
12:53 PM 43.0°F 35.1°F 74% 30.58 in 5.0 miles Calm Calm - N/A   Haze
1:53 PM 43.0°F 36.0°F 76% 30.56 in 5.0 miles Calm Calm - N/A   Haze
2:53 PM 44.1°F 37.0°F 76% 30.53 in 5.0 miles Calm Calm - N/A   Haze
3:53 PM 43.0°F 37.0°F 80% 30.55 in 4.0 miles West 5.8 mph - N/A   Haze
4:53 PM 37.9°F 35.1°F 89% 30.55 in 4.0 miles Calm Calm - N/A   Clear
5:53 PM 33.1°F 32.0°F 96% 30.53 in 4.0 miles Calm Calm - N/A   Clear
6:53 PM 30.9°F 30.0°F 96% 30.53 in 3.0 miles Calm Calm - N/A   Clear
7:35 PM 30.2°F 28.4°F 93% 30.52 in 2.5 miles NE 3.5 mph - N/A   Clear
7:44 PM 30.2°F 28.4°F 93% 30.51 in 3.0 miles Calm Calm - N/A   Clear
7:53 PM 30.9°F 30.0°F 96% 30.52 in 3.0 miles Calm Calm - N/A   Clear
8:00 PM 32.0°F 30.2°F 93% 30.51 in 2.5 miles Calm Calm - N/A   Clear
8:22 PM 30.2°F 28.4°F 93% 30.50 in 3.0 miles NE 3.5 mph - N/A   Clear
8:53 PM 30.0°F 30.0°F 100% 30.50 in 2.0 miles Calm Calm - N/A   Clear
9:07 PM 32.0°F 30.2°F 93% 30.49 in 4.0 miles East 5.8 mph - N/A   Clear
9:53 PM 30.0°F 30.0°F 100% 30.50 in 4.0 miles Calm Calm - N/A   Clear
10:24 PM 28.4°F 26.6°F 93% 30.50 in 2.5 miles Calm Calm - N/A   Clear
10:32 PM 28.4°F 26.6°F 93% 30.50 in 3.0 miles Calm Calm - N/A   Clear
10:47 PM 28.4°F 28.4°F 100% 30.49 in 1.8 miles Calm Calm - N/A   Clear
10:53 PM 28.0°F 26.1°F 92% 30.50 in 1.8 miles Calm Calm - N/A   Clear
11:07 PM 28.4°F 28.4°F 100% 30.49 in 1.2 miles Calm Calm - N/A   Clear
11:12 PM 28.4°F 28.4°F 100% 30.49 in 2.0 miles ENE 3.5 mph - N/A   Clear
11:23 PM 28.4°F 26.6°F 93% 30.49 in 3.0 miles Calm Calm - N/A   Clear
11:53 PM 30.9°F 30.0°F 96% 30.49 in 4.0 miles East 4.6 mph - N/A   Clear
Moon Phase
Jan. 16 Jan. 18 Jan. 26 Feb. 03 Feb. 10
Sunrise:08:01 AM (PST) Moon Rise:10:12 AM (PST)1/16
Sunset:04:54 PM (PST) Moon Set:11:23 PM (PST)1/16

Copyright © 2014 The Weather Underground, Inc.